Flag for Switzerland Weather past 2 weeks in Burgdorf, Bern, Switzerland

Now
70 °F

Passing clouds.


Feels Like: 70 °F
Forecast: 51 / 78 °F
Wind: 9 mph from Northwest

Location: Bern / Belp

Current Time: Jun 2, 2015 at 12:05:53 PM

Latest Report: Jun 2, 2015 at 11:20 AM


Visibility: N/A

Pressure: 30.12 "Hg

Humidity: 64%

Dew point: 57 °F

Location of BurgdorfLocation

Historic Weather in Burgdorf — Graph

°F

Burgdorf temperature yesterday

Maximum temperature yesterday: 77 °F (at 3:20 PM)
Minimum temperature yesterday: 48 °F (at 6:20 AM)
Average temperature yesterday: 64 °F

Past Weeks' High & Low Weather Summary

 TemperatureHumidityPressure
High77 °F (Jun 1, 3:20 PM)100% (May 21, 7:20 AM)30.30 "Hg (May 21, 7:20 AM)
Low37 °F (May 28, 3:50 AM)23% (May 28, 3:20 PM)29.77 "Hg (May 18, 5:50 PM)
Average56 °F73%30.05 "Hg
* Reported May 18 10:20 AM — Jun 2 10:50 AM, Burgdorf, Weather by CustomWeather, © 2015

Note: Actual official high and low records may vary slightly from our data, if they occured in-between our weather recording intervals... More about our weather records

Advertising

Burgdorf weather history for previous 24 hours

 ConditionsComfort  
Time TempWeatherWind HumidityBarometerVisibility
10:50 AM
Tue, Jun 2
68 °FScattered clouds.6 mph69%30.15 "HgN/A
10:20 AM66 °FScattered clouds.3 mph73%30.15 "HgN/A
9:50 AM63 °FScattered clouds.2 mph77%30.15 "HgN/A
9:20 AM61 °FBroken clouds.3 mph83%30.15 "HgN/A
8:50 AM61 °FBroken clouds.5 mph88%30.12 "HgN/A
8:20 AM59 °FBroken clouds.6 mph94%30.12 "HgN/A
7:50 AM57 °FBroken clouds.3 mph94%30.12 "HgN/A
7:20 AM55 °FBroken clouds.5 mph100%30.12 "HgN/A
6:50 AM55 °FScattered clouds.3 mph94%30.09 "HgN/A
6:20 AM55 °FPartly cloudy.8 mph94%30.09 "HgN/A
5:20 AM55 °FPartly cloudy.3 mph94%30.09 "HgN/A
4:50 AM55 °FPassing clouds.1 mph94%30.09 "HgN/A
4:20 AM55 °FMostly cloudy.1 mph94%30.09 "HgN/A
3:50 AM54 °FPartly cloudy.3 mph94%30.09 "HgN/A
3:20 AM55 °FCool.6 mph94%30.09 "HgN/A
2:50 AM55 °FCool.7 mph100%30.09 "HgN/A
2:20 AM55 °FPassing clouds.5 mph100%30.09 "HgN/A
1:50 AM57 °FPartly cloudy.3 mph94%30.09 "HgN/A
1:20 AM57 °FPartly cloudy.1 mph94%30.09 "HgN/A
12:50 AM55 °FOvercast.2 mph100%30.09 "HgN/A
12:20 AM55 °FPassing clouds.3 mph100%30.09 "HgN/A
11:50 PM
Mon, Jun 1
57 °FPassing clouds.3 mph94%30.09 "HgN/A
11:20 PM57 °FPassing clouds.3 mph94%30.09 "HgN/A
10:50 PM57 °FPassing clouds.5 mph94%30.09 "HgN/A
10:20 PM59 °FThundershowers. Passing clouds.6 mph88%30.07 "HgN/A
9:50 PM61 °FThundershowers. Partly sunny.2 mph83%30.07 "HgN/A
9:20 PM63 °FScattered clouds.2 mph77%30.04 "HgN/A
8:50 PM66 °FScattered clouds.3 mph64%30.04 "HgN/A
8:20 PM68 °FPassing clouds.9 mph60%30.04 "HgN/A
7:50 PM72 °FPassing clouds.10 mph53%30.04 "HgN/A
7:20 PM72 °FPassing clouds.9 mph50%30.04 "HgN/A
6:50 PM72 °FScattered clouds.12 mph50%30.04 "HgN/A
6:20 PM73 °FScattered clouds.15 mph50%30.04 "HgN/A
5:50 PM73 °FScattered clouds.9 mph47%30.04 "HgN/A
5:20 PM75 °FPartly sunny.15 mph39%30.04 "HgN/A
4:50 PM75 °FScattered clouds.14 mph39%30.04 "HgN/A
4:20 PM77 °FScattered clouds.16 mph39%30.04 "HgN/A
3:50 PM75 °FScattered clouds.16 mph44%30.04 "HgN/A
3:20 PM77 °FScattered clouds.10 mph42%30.04 "HgN/A
2:50 PM73 °FPartly sunny.12 mph47%30.04 "HgN/A
2:20 PM72 °FPartly sunny.13 mph47%30.04 "HgN/A
1:50 PM72 °FPartly sunny.12 mph50%30.04 "HgN/A
1:20 PM72 °FPartly sunny.7 mph57%30.04 "HgN/A
12:50 PM70 °FPartly sunny.10 mph57%30.04 "HgN/A
12:20 PM72 °FScattered clouds.10 mph50%30.04 "HgN/A
Weather by CustomWeather, © 2015

See weather overviewHow to use our weather pages